DIVISION OF AGRICULTURAL PHYSICS
INDIAN AGRICULTURAL RESEARCH INSTITUTE
NEW DELHI, INDIA-110012
Phone No. 011-25843014

(IARI: Latitude: 280 38'23"N, Longitude:770 09'27"E., Altitude: 228.61m above msl.)
Duration of data : Last 60 days
Date Max.
Temp.
(oC)
Min.
Temp.
(oC)
Rainfall
(mm)
Wind
Speed
(Kmph)
Wind
Direction-I
Wind
Direction-II
Weather
condition-I
(Code 0-9)
Weather
condition-II
(Code 0-9)
RH-I
(%)
RH-II
(%)
BSS
(hrs)
Evaporation
(mm)
2018-04-20 39.4 25.2 0.00 5.5 S SW 1 1 60.0 25.0 7.4 6.0
2018-04-21 39.5 21.5 0.00 10.6 W W 2 2 58.0 21.0 5.8 6.2
2018-04-22 34.4 19.6 0.00 7.9 NW NW 0 0 36.0 17.0 5.2 6.0
2018-04-23 34.8 19.0 0.00 8.3 NW NW 0 0 54.0 18.0 9.6 5.8
2018-04-24 36.0 16.5 0.00 5.6 C NW 0 0 51.0 19.0 10.0 6.2
2018-04-25 38.4 17.6 0.00 4.9 C W 0 0 53.0 15.0 9.7 6.7
2018-04-26 41.5 22.4 0.00 4.9 SW E 0 2 52.0 19.0 9.5 7.0
2018-04-27 41.0 23.5 0.00 5.7 SE SE 1 0 65.0 40.0 8.1 6.0
2018-04-28 37.8 26.6 0.00 6.9 SE E 1 0 64.0 37.0 6.9 5.5
2018-04-29 38.2 24.2 0.00 7.0 C NE 0 0 65.0 32.0 6.8 6.2
2018-04-30 40.0 23.0 1.00 3.6 SE NW 0 0 63.0 37.0 6.9 6.0
2018-05-01 39.5 24.6 0.00 7.6 E E 0 0 73.0 45.0 8.6 5.5
2018-05-02 36.0 25.0 0.00 8.6 SE S 0 0 72.0 42.0 8.3 5.0
2018-05-03 36.4 19.5 20.40 9.5 SE SE 1 0 79.0 49.0 7.1 5.3
2018-05-04 33.5 21.5 2.20 9.4 SE E 1 0 81.0 41.0 5.6 5.2
2018-05-05 35.4 23.0 0.00 5.9 SE SW 0 0 64.0 29.0 8.6 5.9
2018-05-06 39.0 24.0 0.00 2.9 C NE 1 0 78.0 31.0 9.4 6.0
2018-05-07 36.0 20.8 0.00 6.8 C W 0 1 63.0 25.0 8.0 6.2
2018-05-08 39.5 23.0 0.00 7.5 SE W 1 0 69.0 27.0 7.9 5.5
2018-05-09 34.5 19.0 0.00 5.4 C N 0 1 60.0 33.0 8.1 5.4
2018-05-10 35.2 18.0 0.00 3.4 C W 0 0 54.0 24.0 7.5 7.0
2018-05-11 38.3 21.4 0.00 3.4 C W 0 0 56.0 20.0 8.4 6.5
2018-05-12 41.8 24.3 0.00 3.3 C SE 1 1 65.0 31.0 8.9 7.0
2018-05-13 40.4 28.4 0.00 6.6 E S 1 0 65.0 46.0 4.9 8.0
2018-05-14 39.0 19.8 4.60 10.0 E E 1 1 66.0 43.0 6.6 5.6
2018-05-15 35.0 24.0 0.00 4.2 SE SE 1 0 63.0 42.0 4.9 5.7
2018-05-16 37.0 22.5 0.00 6.1 W NW 0 0 63.0 28.0 5.0 5.8
2018-05-17 39.6 25.0 0.00 5.9 C W 0 1 68.0 24.0 8.6 6.0
2018-05-18 41.4 24.6 0.00 4.4 C NW 0 0 71.0 28.0 7.0 6.0
2018-05-19 39.5 23.5 0.00 3.8 C N 1 1 67.0 28.0 7.0 5.8
2018-05-20 40.6 25.2 0.00 4.3 C NW 1 1 72.0 26.0 7.0 6.0
2018-05-21 40.2 26.0 0.00 4.9 C N 0 0 65.0 23.0 8.9 6.2
2018-05-22 42.0 25.4 0.00 5.7 C E 0 0 62.0 24.0 9.3 7.0
2018-05-23 43.0 23.5 0.00 3.5 C N 0 0 62.0 23.0 8.7 7.7
2018-05-24 42.6 27.4 0.00 4.5 N N 0 0 66.0 29.0 8.4 7.7
2018-05-25 41.7 19.9 0.00 3.0 NW NW 0 0 48.0 21.0 7.1 7.0
2018-05-26 43.8 21.2 0.00 2.6 C W 0 0 50.0 28.0 10.4 8.2
2018-05-27 45.0 24.5 0.00 4.0 W W 0 0 52.0 31.0 9.7 10.0
2018-05-28 44.5 24.4 0.00 6.4 C SE 0 0 63.0 35.0 8.5 9.8
2018-05-29 42.0 22.0 0.00 3.8 S S 0 0 55.0 27.0 7.8 8.0
2018-05-30 44.5 28.4 0.00 9.7 SE E 1 0 66.0 42.0 9.0 9.0
2018-05-31 39.5 25.2 0.00 6.1 SE S 0 0 67.0 31.0 6.4 6.6
2018-06-01 41.6 28.0 0.00 7.0 SE SE 0 0 70.0 43.0 8.5 6.0
2018-06-02 39.8 23.6 0.00 9.1 E SE 1 0 60.0 47.0 8.0 6.0
2018-06-03 36.0 25.8 0.00 9.0 SE NE 1 0 83.0 44.0 7.0 7.0
2018-06-04 38.2 28.6 0.00 7.5 SE E 1 1 63.0 43.0 7.8 6.2
2018-06-05 40.0 29.8 0.00 9.9 SE E 1 0 65.0 42.0 5.2 6.0
2018-06-06 40.0 25.6 0.00 9.7 E E 1 1 71.0 58.0 5.5 7.0
2018-06-07 35.0 27.4 0.00 6.7 SE E 1 0 72.0 41.0 1.0 5.6
2018-06-08 40.0 30.0 0.00 5.3 SE SE 1 1 72.0 49.0 7.5 7.0
2018-06-09 40.5 28.0 0.00 10.2 SE SE 1 5 80.0 56.0 3.2 8.0
2018-06-10 38.2 22.0 10.20 6.7 C W 0 0 91.0 44.0 3.9 7.2
2018-06-11 37.8 27.0 0.00 5.2 W NW 0 0 71.0 31.0 8.2 6.5
2018-06-12 40.6 29.0 0.00 10.0 W W 0 2 71.0 35.0 7.5 7.6
2018-06-13 41.6 33.0 0.00 12.0 W W 2 0 66.0 43.0 3.7 9.2
2018-06-14 41.5 24.4 0.00 16.2 W W 2 3 61.0 35.0 0.0 8.4
2018-06-15 40.8 31.5 0.00 15.3 W W 2 0 56.0 41.0 0.0 8.6
2018-06-16 40.8 30.0 0.00 10.2 W W 2 1 66.0 47.0 1.7 8.2
2018-06-17 40.0 24.8 0.00 8.0 SE C 1 0 68.0 56.0 2.3 7.0
2018-06-18 36.4 25.4 0.00 6.1 SW NW 1 1 60.0 45.0 5.6 6.6
2018-06-19 37.0 25.8 0.00 7.7 W 0 0 74.0 0.0 3.9 6.6

Abbrevations used:
I - Observations taken at 7.21 hrs. and II - Observations taken at 14:21 hrs.
Codes:
0 - Fair (clear and slightly clouded), 1 - Variable Sky, 2 - Mainly Overcast, 3 - Sand Storm or Dust Storm,4 - Fog or Thick Dust Haze, 5 - Drizzle, 6 - Rain,7 - Snow or Sleet, 8 - Shower (s), 9 - Thunder Storm with or without Precipitation